366  
ASUS42 KTBW 251217  
RWRFL  
FLORIDA REGIONAL WEATHER ROUNDUP  
NATIONAL WEATHER SERVICE TAMPA BAY RUSKIN FL  
800 AM EDT WED MAY 25 2016  
 
NOTE: "FAIR" INDICATES FEW OR NO CLOUDS BELOW 12,000 FEET WITH NO  
SIGNIFICANT WEATHER AND/OR S TO VISIBILITY
.  
 
FLZ001>010-012>015-112-114-115-251300-  
PANHANDLE FLORIDA  
 
CITY SKY/WX TMP DP RH WIND PRES REMARKS
 
PENSACOLA SUNNY 68 65 90 E3 30.15S  
PENSACOLA NAS PTSUNNY 69 66 90 CALM 30.14F  
MILTON NAS MOSUNNY 62 62 100 SE3 30.15  
CRESTVIEW MOSUNNY 63 59 87 CALM 30.18R  
DUKE FIELD FAIR 65 61 87 VRB2 30.16R FOG  
VALPARAISO MOSUNNY 67 62 84 CALM 30.16R  
MARY ESTHER MOSUNNY 65 64 94 NE1 30.15R  
TRI COUNTY FAIR 65 61 87 CALM 30.19S  
PANAMA CITY FAIR 65 62 90 CALM 30.16R  
TYNDALL AFB SUNNY 68 63 82 NE3 30.18R  
APALACHICOLA SUNNY 70 66 87 N3 30.16R  
 
STATION/POSITION SKY/WX TEMP WIND PRES WAVE SWELL
 
AIR SEA DIR/SP/G HT/PER HT/PER  
(F) (DEG/KT/KT) (MB) (FT/S) (FT/S)  
30.1N 87.6W 77 78 130/ 8/ 10 1020.2R 1/ 4  
29.2N 88.2W 77 77 130/ 4/ 6 1019.8R  
28.8N 86.0W 77 80 120/ 10/ 12 1021.1R 1  
PANAMA CITY BEAC 69 74 70/ 5/ 8 1021.5R  
TOWER C 77 150/ 13/ 14 1021.8R  
28.5N 84.5W 78 78 150/ 12/ 16 1020.5R 2/ 4  
 

 
FLZ011-016>038-118-127-128-134-139-239-251300-  
NORTH FLORIDA  
 
CITY SKY/WX TMP DP RH WIND PRES REMARKS
 
MARIANNA SUNNY 67 62 84 E5 30.18R  
TALLAHASSEE SUNNY 71 61 70 E8 30.18R  
PERRY SUNNY 70 61 71 E5 30.20R  
LIVE OAK FAIR 72 63 73 E3 30.23R  
CROSS CITY N/A 72 61 68 VRB3 30.19R  
LAKE CITY FAIR 68 64 88 CALM 30.22R  
GAINESVILLE SUNNY 68 64 87 CALM 30.21R  
WILLISTON FAIR 72 64 78 CALM 30.21R  
PALATKA FAIR 66 66 100 CALM 30.21S  
MAYPORT NAS MOSUNNY 74 64 71 SW3 30.22R  
JACKSONVILLE MOSUNNY 69 65 86 CALM 30.21R  
JAX NAS MOSUNNY 78 62 57 VRB5 30.22R  
JAX CECIL SUNNY 63 63 100 CALM 30.22R  
FERNANDINA BEA FAIR 73 68 83 CALM 30.21R  
ST AUGUSTINE SUNNY 73 64 73 NW3 30.22R  
PALM COAST SUNNY 68 66 94 CALM 30.20R  
 
STATION/POSITION SKY/WX TEMP WIND PRES WAVE SWELL
 
AIR SEA DIR/SP/G HT/PER HT/PER  
(F) (DEG/KT/KT) (MB) (FT/S) (FT/S)  
SHELL POINT 78 150/ 15/ 18 1019.8  
KEATON BEACH 69 110/ 7/ 8 1022.0R  
CEDAR KEY 75 120/ 13/ 14 1021.9R  
FERNANDINA 72 79 CALM / 1 1022.7R  
30.7N 81.3W 77 N/A 3/ 9  
MAYPORT 73 79 220/ 2/ 3 1022.7R  
31.4N 80.9W 76 75 170/ 4/ 6 1023.3R 2/ 9 2/ 9  
ST AUGUSTINE 77 78 150/ 12/ 13 1023.9R  
 

 
FLZ040-043>046-052-053-057-058-063-144-251300-  
INTERIOR CENTRAL FLORIDA  
 
CITY SKY/WX TMP DP RH WIND PRES REMARKS
 
OCALA SUNNY 64 57 77 CALM 30.20R  
THE VILLAGES N/A 73 66 78 CALM 30.11R  
LEESBURG SUNNY 76 65 68 SE7 30.21R  
SANFORD SUNNY 73 64 73 E5 30.20R  
ORLANDO EXEC SUNNY 75 65 70 E6 30.20R  
ORLANDO INTL MOSUNNY 74 65 73 E5 30.20R  
KISSIMMEE SUNNY 73 68 83 CALM 30.20R  
WINTER HAVEN SUNNY 76 65 68 E10G16 30.20R  
LAKELAND SUNNY 73 68 83 E6 30.19R  
BARTOW MOSUNNY 72 68 88 E7 30.19S  
OKEECHOBEE SUNNY 72 68 88 CALM 30.18R  
 

 
FLZ041-047-054-059-064-141-147-251300-  
EAST CENTRAL FLORIDA  
 
CITY SKY/WX TMP DP RH WIND PRES REMARKS
 
ORMOND BEACH SUNNY 72 64 78 CALM 30.21  
DAYTONA BEACH MOSUNNY 76 66 71 CALM 30.21R  
DELAND N/A 72 64 78 CALM 30.22R  
JFK SPACE CTR MOSUNNY 77 64 65 E6 30.19R  
TITUSVILLE SUNNY 75 72 88 E6 30.20R  
CAPE CANAVERAL SUNNY 78 64 62 E8 30.18R  
PATRICK AFB MOSUNNY 79 64 61 E10 30.19R  
MELBOURNE SUNNY 79 64 60 E10 30.19R  
VERO BEACH SUNNY 79 64 60 E8 30.18R  
FT PIERCE SUNNY 78 65 63 E9 30.17R  
STUART SUNNY 82 66 57 E8 30.18R  
 
STATION/POSITION SKY/WX TEMP WIND PRES WAVE SWELL
 
AIR SEA DIR/SP/G HT/PER HT/PER  
(F) (DEG/KT/KT) (MB) (FT/S) (FT/S)  
28.5N 80.2W 78 79 100/ 10/ 12 1022.4R  
28.9N 78.5W 76 78 60/ 6/ 8 1022.7R  
TRIDENT PIER 77 80 90/ 6/ 10 1021.9R  
28.4N 80.5W 80 N/A 3/ 5  
27.5N 80.2W 80 N/A 3/ 5  
 

 
FLZ050-056-061-142-242-148-248-149-249-151-251-155-255-  
160-260-251300-  
WEST CENTRAL FLORIDA  
 
CITY SKY/WX TMP DP RH WIND PRES REMARKS
 
CRYSTAL RIVER FAIR 72 64 78 E3 30.19R  
INVERNESS FAIR 70 66 88 CALM 30.20R  
BROOKSVILLE SUNNY 72 65 78 E7 30.19R  
ZEPHYRHILLS FAIR 71 63 77 E7 30.20R  
CLEARWATER AIR FAIR 77 66 69 E6 30.17R  
ST PETE CLEARW SUNNY 77 67 71 E12 30.16R  
TAMPA INTL SUNNY 77 66 68 E6 30.18R  
TAMPA EXEC SUNNY 73 66 78 CALM 30.18R  
PLANT CITY SUNNY 75 70 83 E6 30.20R  
MACDILL AFB SUNNY 76 69 79 E12 30.16R  
PETER O KNIGHT SUNNY 77 70 78 E8 30.17S  
ST PETERSBURG SUNNY 78 67 68 SE15 30.15R  
SARASOTA SUNNY 77 64 64 E10 30.14R  
VENICE NOT AVBL  
 
STATION/POSITION SKY/WX TEMP WIND PRES WAVE SWELL
 
AIR SEA DIR/SP/G HT/PER HT/PER  
(F) (DEG/KT/KT) (MB) (FT/S) (FT/S)  
27.3N 84.2W 81 N/A 1  
CLEARWATER BEACH 76 82 120/ 7/ 12 1020.8R  
MIDDLE TAMPA BAY 74 120/ 12/ 14 1021.0R  
VENICE 74 80 90/ 7/ 10 1020.6R  
 

 
FLZ066-069-070-075>078-162-262-165-265-251300-  
SOUTHWEST FLORIDA AND KEYS  
 
CITY SKY/WX TMP DP RH WIND PRES REMARKS
 
PUNTA GORDA SUNNY 73 69 87 E7 30.17R  
FT MYERS SUNNY 76 68 76 E10 30.14R  
SOUTHWEST INTL SUNNY 76 67 73 E10 30.15R  
NAPLES SUNNY 77 68 73 E9 30.14R  
MARATHON MOSUNNY 81 73 76 E8 30.11R  
KEY WEST NAS PTSUNNY 76 73 91 CALM 30.12R  
KEY WEST INTL TSTM 75 69 81 NE6 30.12R  
 
STATION/POSITION SKY/WX TEMP WIND PRES WAVE SWELL
 
AIR SEA DIR/SP/G HT/PER HT/PER  
(F) (DEG/KT/KT) (MB) (FT/S) (FT/S)  
NAPLES 85 1020.0R  
26.0N 85.6W 79 81 60/ 12/ 16 1019.8R 2/ 5  
DRY TORTUGAS 81 90/ 10/ 11 1019.4R  
SAND KEY 81 80/ 20/ 24 1019.9R  
LONG KEY 80 85 120/ 10/ 11 1019.7R  
MOLASSES REEF 81 82 90/ 15/ 16 1019.7R  
 

 
FLZ067-068-071>074-168-172>174-251300-  
SOUTHEAST FLORIDA  
 
CITY SKY/WX TMP DP RH WIND PRES REMARKS
 
W PALM BEACH MOSUNNY 80 66 62 E13 30.16R  
BOCA RATON N/A 79 70 73 E13G18 30.15R  
FT LAUDER-EXEC MOSUNNY 79 67 66 E13 30.14S  
FT LAUDERDALE MOSUNNY 80 66 62 E14 30.14R  
POMPANO BEACH MOSUNNY 79 69 71 E13 30.15R  
PEMBROKE PINES MOSUNNY 80 69 69 E13 30.15S  
OPA LOCKA SUNNY 80 68 66 E13 30.14S  
MIAMI MOSUNNY 79 69 71 E13 30.14R  
WEST KENDALL SUNNY 79 69 71 E9 30.13R  
HOMESTEAD MOSUNNY 80 69 68 E9 30.13R  
 
STATION/POSITION SKY/WX TEMP WIND PRES WAVE SWELL
 
AIR SEA DIR/SP/G HT/PER HT/PER  
(F) (DEG/KT/KT) (MB) (FT/S) (FT/S)  
PORT EVERGLADES 80 70/ 10/ 14 1020.5R  
VIRGINIA KEY 80 82 80/ 12/ 15 1020.7R  
LAKE WORTH 79 80 70/ 15/ 17 1020.5R  
FOWEY ROCKS 80 83 70/ 18/ 19 1020.9R  
SETTLEMENT POINT 78 80/ 14/ 16 1022.1R  
 

 
 
 
 
CLICK HERE TO GO TO PREVIOUS BULLETINS.

The Nexlab FL Page Main Text Page